Regional Weather Roundup
Issued by NWS Mobile, AL

Home | Current Version | Previous Version | Text Only | Print | Product List | Glossary On
Versions: 1 2 3 4 5 6 7 8 9 10 11 12 13 14 15 16 17 18 19 20 21 22 23 24 25 26 27 28
000
ASUS44 KMOB 051113
RWRMOB
REGIONAL WEATHER ROUNDUP
NATIONAL WEATHER SERVICE MOBILE AL
600 AM CDT THU MAY 05 2016

NOTE: "FAIR" INDICATES FEW OR NO CLOUDS BELOW 12,000 FEET WITH NO
      SIGNIFICANT WEATHER AND/OR OBSTRUCTIONS TO VISIBILITY.

  * THESE STATIONS ARE PART OF THE UNIVERSITY OF SOUTH ALABAMA
    MESONET AND ARE NOT UNDER NWS OR FAA QUALITY CONTROL.

ALZ061>064-051200-
COASTAL ALABAMA

CITY           SKY/WX    TMP DP  RH WIND       PRES   REMARKS
MOBILE REG APT PTCLDY    57  53  86 NW6       29.86R
BROOKLEY FIELD CLEAR     61  52  72 NW5       29.86R
USA CAMPUS*    NOT AVBL
DOG RIVER*     NOT AVBL


CITY           SKY/WX    TMP DP  RH WIND       PRES   REMARKS
MOUNT VERNON*  NOT AVBL
SARALAND*      NOT AVBL
BAY MINETTE*   NOT AVBL
LOXLEY*        NOT AVBL
ROBERTSDALE*   NOT AVBL
FAIRHOPE*      NOT AVBL
ELBERTA*       NOT AVBL
FOLEY*         NOT AVBL
GRAND BAY*     NOT AVBL
DAUPHIN ISLND* NOT AVBL
BON SCOUR NWR* NOT AVBL
GULF SHORES    CLEAR     62  54  75 NW3       29.84R

$$

ALZ051>060-051200-
INTERIOR SOUTHWEST AND SOUTH CENTRAL ALABAMA

CITY           SKY/WX    TMP DP  RH WIND       PRES   REMARKS
GREENVILLE     CLEAR     55  51  86 N7        29.84R
EVERGREEN      CLEAR     53  51  93 NW5       29.84R
CASTLEBERRY*   NOT AVBL
ATMORE*        NOT AVBL
DIXIE*         NOT AVBL
ANDALUSIA/OPP  CLEAR     57  51  80 NW3       29.83R
ANDALUSIA*     NOT AVBL
FLORALA APT    CLEAR     54  51  90 CALM      29.84R
FLORALA*       NOT AVBL

$$

FLZ001>006-051200-
WESTERN FLORIDA PANHANDLE

CITY           SKY/WX    TMP DP  RH WIND       PRES   REMARKS
PENSACOLA      CLEAR     60  51  72 NW7       29.82R
NAS PENSACOLA  PTCLDY    61  52  72 NW6       29.82
MILTON         CLEAR     53  51  93 NW3       29.83R
WHTNG S FIELD  CLEAR     57  53  86 NW6       29.83R


CITY           SKY/WX    TMP DP  RH WIND       PRES   REMARKS
WALNUT HILL*   NOT AVBL
JAY*           NOT AVBL
DUKE FIELD     CLEAR     54  49  82 NW3       29.81R
CRESTVIEW      CLEAR     52  49  89 CALM      29.84R
VALPARAISO     PTCLDY    57  51  81 NW6       29.82R
DESTIN         CLEAR     67  55  65 NW6       29.81R

$$

MSZ076-079-051200-
INTERIOR SOUTHEAST MISSISSIPPI

CITY           SKY/WX    TMP DP  RH WIND       PRES   REMARKS
LEAKESVILLE*   NOT AVBL
AGRICOLA*      NOT AVBL

$$

MARINE OBSERVATIONS

STATION/POSITION TIME  TEMP    WIND        PRES    WAVE
                       AIR SEA DIR/SP/G            HT/PER
                 (UTC) (F)     (DEG/KT/KT) (MB)    (FT/S)
PASCAGOULA       1000   63     330/  7/  8 1009.9R
PETIT BOIS ISLND 1012   68     320/ 14/ 18 1011.0R
GRAND BAY        0900   66     320/  9     1011.0S
KATRINA CUT      1000   68     330/ 19       N/A
CEDAR POINT      1000   65     330/ 11     1009.5R
E DAUPHIN ISLAND 1000   67     310/ 16/ 18 1009.8R
MIDDLE BAY LIGHT 1000   67     320/ 20     1010.2R
USCG MOBILE BAY  1000   63 74  310/  5/  8 1010.5R
STATE DOCKS      1000   62                 1009.9R
MEAHER PARK      1000   62     330/  3     1009.8R
WEEKS BAY        0900   68                   N/A
FORT MORGAN      1000   68     340/ 21/ 24 1009.1R
12 S ORANGE BCH  1050   70 74  330/ 16/ 19 1009.2R   4/ 5
PENSACOLA BAY    1000          340/  5/  9 1009.6R
64 S DAUPHIN ISL 1000   74 75  280/ 17/ 21 1010.4S

$$

SELECTED LOCATIONS ACROSS THE REGION

CITY           SKY/WX    TMP DP  RH WIND       PRES   REMARKS
NEW ORLEANS    CLEAR     65  56  72 NW8       29.89R
GULFPORT       CLEAR     57  52  83 NW5       29.86R
PASCAGOULA AP  CLEAR     54  52  93 CALM      29.86R
PASCAGOULA*    NOT AVBL
HATTIESBURG    CLEAR     55  51  86 NW3       29.89R
LAUREL         CLEAR     54  48  82 N5        29.89R
MERIDIAN       CLEAR     53  49  86 N5        29.90R
JACKSON        CLEAR     58  47  66 N6        29.91R
MONTGOMERY     CLEAR     55  46  71 N5        29.85R
TROY           CLEAR     55  53  93 NW6       29.83R
KINSTON*       NOT AVBL
GENEVA*        NOT AVBL
ASHFORD*       NOT AVBL
DOTHAN         CLEAR     55  53  93 NW8       29.83R
PANAMA CITY    CLEAR     56  51  84 NW7       29.80R

$$





USA.gov is the U.S. government's official web portal to all federal, state and local government web resources and services.